Miscellaneous Local Product
Issued by NWS North Platte, NE

Home | Current Version | Previous Version | Graphics & Text | Print | Product List | Glossary On
Versions: 1 2 3 4 5 6 7 8 9 10 11 12 13 14 15 16 17 18 19 20 21 22 23 24 25 26 27 28 29 30 31 32 33 34 35 36 37 38 39 40 41 42 43 44 45 46 47 48 49 50
000
AXUS43 KLBF 180710
MISLBF


WESTERN AND NORTH CENTRAL NEBRASKA HOURLY WEATHER ROUNDUP
NATIONAL WEATHER SERVICE NORTH PLATTE NE
200 AM CDT SAT APR 18 2015

***STATIONS NOT REPORTING VARIABLES SUCH AS SKY/WEATHER OR
PRESSURE ARE PROVIDED BY THE NEBRASKA DEPARTMENT OF
ROADS...RAWS...AND APRS NETWORKS...AND ARE NOT UNDER
NATIONAL WEATHER SERVICE QUALITY CONTROL***

...OBSERVATIONS IN AND NEAR THE EASTERN PANHANDLE OF NEBRASKA...

CITY           SKY/WX    TMP DP  RH WIND       PRES   REMARKS
PINE RIDGE     LGT RAIN  49  46  90 E12       30.05S
CHADRON        CLOUDY    48  46  93 NE6       30.04F
ALLIANCE       HVY RAIN  47  45  93 NE12      30.02F FOG
SIDNEY         LGT RAIN  41  39  93 NW16      30.02F
WHITECLAY        N/A     47  44  90 E9          N/A
CRESCENT LAKE    N/A     45  44  98 NE7         N/A
BIG SPRINGS      N/A     49  47  94 CALM        N/A
$$

...OBSERVATIONS IN NORTH CENTRAL NEBRASKA...

CITY           SKY/WX    TMP DP  RH WIND       PRES   REMARKS
VALENTINE      CLOUDY    51  47  86 NE8       30.03F
THEDFORD       CLOUDY    52  50  95 E9        29.99F
AINSWORTH      CLOUDY    52  51  97 NE6       30.03F
O`NEILL        CLOUDY    55  49  78 NW5       30.02S
ORD            MOCLDY    55  51  86 CALM      29.97F
BROKEN BOW     CLOUDY    56  52  86 E13       29.96F
SPRINGVIEW       N/A     52  50  92 CALM        N/A
ROSE             N/A     53  53  99 NE7         N/A
NEWPORT          N/A     53  52  95 CALM        N/A
SARGENT          N/A     55  52  90 MISG        N/A
COMSTOCK         N/A     57  56  97 E5          N/A
EWING            N/A     58  51  79 CALM        N/A
$$

...OBSERVATIONS IN SOUTHWEST NEBRASKA AND FAR NORTHEAST COLORADO...

CITY           SKY/WX    TMP DP  RH WIND       PRES   REMARKS
WRAY           PTSUNNY   46  43  88 NW13      29.98F
HOLYOKE        FAIR      46  43  87 NW12G17   30.00F
IMPERIAL       LGT RAIN  49  46  90 SE9       29.98S
OGALLALA       RAIN      49  48  97 CALM      29.99S
NORTH PLATTE   RAIN      51  49  92 CALM      29.97F
MCCOOK         CLOUDY    52  49  89 CALM      29.97F
LEXINGTON      TSTM      55  52  90 SW10G26   29.97R
PAXTON           N/A     50  48  93 CALM        N/A
SUTHERLAND       N/A     46  44  93 E3          N/A
BRADY            N/A     54  52  92 N3G13       N/A
GOTHENBURG       N/A     56  51  85 NE8         N/A
CALLAWAY         N/A     53  52  96 E8          N/A
$$

...NORTH PLATTE AREA...

CITY           SKY/WX    TMP DP  RH WIND       PRES   REMARKS
AIRPORT        RAIN      51  49  92 CALM      29.97F
DOWNTOWN         N/A     50  48  93 CALM        N/A
$$

...SOME WEATHER OBSERVATIONS FROM AROUND THE REGION...

CITY           SKY/WX    TMP DP  RH WIND       PRES   REMARKS
DENVER         CLOUDY    38  36  92 NE5       30.01F WCI  34
LARAMIE        CLOUDY    26  24  92 N6        30.03F FOG     WCI  19
CHEYENNE       FOG       33  32  96 NW6       30.03F VSB 3/4 WCI  28
SCOTTSBLUFF    LGT RAIN  42  42 100 W12       30.04F
RAPID CITY     CLOUDY    48  44  86 CALM      30.08F
PIERRE         CLOUDY    53  48  83 NW8       30.05F
WINNER         CLOUDY    53  49  86 NE7       30.03F
SIOUX FALLS    CLOUDY    49  30  48 NE6       30.02F
OMAHA          CLOUDY    67  54  63 SE8       29.97S
GRAND ISLAND   CLOUDY    54  52  93 NE3       29.98S
KANSAS CITY    CLOUDY    64  57  78 E9        29.96F
WICHITA        CLOUDY    63  59  87 S3        29.93F THUNDER
HAYS           CLOUDY    59  50  72 W15G28    29.96R
LIBERAL        MOCLDY    54  48  82 S6        29.96S
GOODLAND       PTCLDY    47  46  97 SE7       29.95F
$$



USA.gov is the U.S. government's official web portal to all federal, state and local government web resources and services.